Location: Del Amo
(33.8464°N, 118.2104°W)
Time: 18:30:58
(UTC+00:00)

S-56A Canister/Altair - Pass Details

Date: 18 September 2024
Orbit: 636 x 2487 km, 38.9° (Epoch: 14 October)

Event Time Altitude Azimuth Distance (km) Brightness Sun altitude
Rises 06:15:49 0° 291° (WNW) 3,909 11.7 -48.5°
Reaches altitude 10° 06:18:08 10° 290° (WNW) 3,147 11.0 -48.8°
Enters shadow 06:20:02 21° 288° (WNW) 2,573 10.4 -49.0°
Maximum altitude 06:26:11 78° 205° (SSW) 1,635 - -49.7°
Drops below altitude 10° 06:38:30 10° 122° (ESE) 4,645 - -51.0°
Sets 06:42:40 0° 121° (ESE) 5,850 - -51.4°
